| time (UTC) | temp C | wind direction | speed KPH | gust KPH | rain 1hr cm | rain 24hr cm | rain mn cm | humidity % | barometer mb |
| 20260503060114 | 10 | 0 | 0.0 | 0.0 | 0.00 | 0.13 | 0.13 | 76 | 1016.3 |
| 20260503055038 | 10 | 0 | 0.0 | 0.0 | 0.03 | 0.13 | 0.13 | 76 | 1016.5 |
| 20260503054602 | 10 | 0 | 0.0 | 0.0 | 0.03 | 0.13 | 0.13 | 75 | 1016.5 |
| 20260503054041 | 10 | 0 | 0.0 | 0.0 | 0.03 | 0.13 | 0.13 | 75 | 1016.7 |
| 20260503053538 | 11 | 0 | 0.0 | 0.0 | 0.03 | 0.13 | 0.13 | 75 | 1016.6 |
| 20260503053052 | 11 | 0 | 0.0 | 0.0 | 0.03 | 0.13 | 0.13 | 74 | 1016.6 |
| 20260503052541 | 11 | 0 | 0.0 | 0.0 | 0.03 | 0.13 | 0.13 | 74 | 1016.6 |
| 20260503052040 | 11 | 0 | 0.0 | 0.0 | 0.03 | 0.13 | 0.13 | 73 | 1016.5 |
| 20260503051547 | 11 | 0 | 0.0 | 0.0 | 0.03 | 0.13 | 0.13 | 73 | 1016.7 |
| 20260503051037 | 11 | 0 | 0.0 | 0.0 | 0.03 | 0.13 | 0.13 | 73 | 1016.7 |
| 20260503050538 | 11 | 0 | 0.0 | 0.0 | 0.03 | 0.13 | 0.13 | 73 | 1016.7 |
| 20260503050050 | 11 | 0 | 0.0 | 0.0 | 0.03 | 0.13 | 0.13 | 72 | 1016.9 |
| 20260503045538 | 11 | 0 | 0.0 | 0.0 | 0.00 | 0.10 | 0.10 | 70 | 1017.3 |
| 20260503045038 | 11 | 0 | 0.0 | 0.0 | 0.00 | 0.10 | 0.10 | 70 | 1017.3 |
| 20260503044551 | 11 | 0 | 0.0 | 0.0 | 0.00 | 0.10 | 0.10 | 69 | 1017.1 |
| 20260503044037 | 11 | 0 | 0.0 | 0.0 | 0.00 | 0.10 | 0.10 | 70 | 1016.8 |
| 20260503043541 | 11 | 0 | 0.0 | 0.0 | 0.00 | 0.10 | 0.10 | 69 | 1016.8 |
| 20260503043049 | 11 | 0 | 0.0 | 0.0 | 0.00 | 0.10 | 0.10 | 66 | 1016.8 |
| 20260503042541 | 11 | 0 | 0.0 | 0.0 | 0.00 | 0.10 | 0.10 | 65 | 1016.7 |
| 20260503042038 | 11 | 0 | 0.0 | 0.0 | 0.00 | 0.10 | 0.10 | 65 | 1016.7 |
| 20260503041548 | 11 | 0 | 0.0 | 0.0 | 0.00 | 0.10 | 0.10 | 67 | 1016.6 |
| 20260503041039 | 11 | 0 | 0.0 | 0.0 | 0.00 | 0.10 | 0.10 | 71 | 1016.6 |
| 20260503040538 | 11 | 0 | 0.0 | 0.0 | 0.00 | 0.10 | 0.10 | 73 | 1016.8 |
| 20260503040051 | 11 | 0 | 0.0 | 0.0 | 0.00 | 0.10 | 0.10 | 74 | 1016.8 |
| 20260503035538 | 11 | 0 | 0.0 | 0.0 | 0.00 | 0.10 | 0.10 | 73 | 1016.8 |
| 20260503035038 | 11 | 0 | 0.0 | 0.0 | 0.00 | 0.10 | 0.10 | 73 | 1017.0 |
| 20260503034553 | 11 | 0 | 0.0 | 0.0 | 0.00 | 0.10 | 0.10 | 72 | 1016.7 |
| 20260503034037 | 11 | 0 | 0.0 | 0.0 | 0.00 | 0.10 | 0.10 | 73 | 1016.8 |
| 20260503033538 | 11 | 0 | 0.0 | 0.0 | 0.00 | 0.10 | 0.10 | 74 | 1016.6 |
| 20260503033100 | 11 | 0 | 0.0 | 0.0 | 0.00 | 0.10 | 0.10 | 75 | 1016.4 |
| 20260503032539 | 11 | 0 | 0.0 | 0.0 | 0.00 | 0.10 | 0.10 | 74 | 1016.4 |
| 20260503032039 | 11 | 0 | 0.0 | 0.0 | 0.00 | 0.10 | 0.10 | 74 | 1016.3 |
| 20260503031547 | 11 | 0 | 0.0 | 0.0 | 0.00 | 0.10 | 0.10 | 73 | 1016.1 |
| 20260503031039 | 11 | 0 | 0.0 | 0.0 | 0.00 | 0.10 | 0.10 | 72 | 1016.1 |
| 20260503030538 | 11 | 0 | 0.0 | 0.0 | 0.00 | 0.10 | 0.10 | 72 | 1016.1 |
| 20260503030050 | 11 | 0 | 0.0 | 0.0 | 0.00 | 0.10 | 0.10 | 72 | 1016.1 |
| 20260503025538 | 11 | 0 | 0.0 | 0.0 | 0.00 | 0.10 | 0.10 | 72 | 1016.0 |
| 20260503025038 | 11 | 0 | 0.0 | 0.0 | 0.00 | 0.10 | 0.10 | 72 | 1016.1 |
| 20260503024547 | 11 | 0 | 0.0 | 0.0 | 0.00 | 0.10 | 0.10 | 71 | 1016.1 |
| 20260503024038 | 11 | 0 | 0.0 | 0.0 | 0.00 | 0.10 | 0.10 | 72 | 1016.0 |
| 20260503023537 | 11 | 0 | 0.0 | 0.0 | 0.00 | 0.10 | 0.10 | 73 | 1015.9 |
| 20260503023050 | 11 | 0 | 0.0 | 0.0 | 0.00 | 0.10 | 0.10 | 71 | 1016.1 |
| 20260503022538 | 11 | 0 | 0.0 | 0.0 | 0.00 | 0.10 | 0.10 | 72 | 1016.1 |
| 20260503022040 | 11 | 0 | 0.0 | 0.0 | 0.00 | 0.10 | 0.10 | 71 | 1016.2 |
| 20260503021551 | 11 | 0 | 0.0 | 0.0 | 0.00 | 0.10 | 0.10 | 70 | 1016.1 |
| 20260503021039 | 11 | 0 | 0.0 | 0.0 | 0.00 | 0.10 | 0.10 | 71 | 1015.9 |
| 20260503020539 | 12 | 0 | 0.0 | 0.0 | 0.03 | 0.10 | 0.10 | 72 | 1015.9 |
| 20260503020048 | 12 | 0 | 0.0 | 0.0 | 0.05 | 0.10 | 0.10 | 71 | 1016.0 |
| 20260503015538 | 12 | 0 | 0.0 | 0.0 | 0.08 | 0.10 | 0.10 | 69 | 1016.0 |
| 20260503015039 | 12 | 0 | 0.0 | 0.0 | 0.10 | 0.10 | 0.10 | 70 | 1015.9 |
| 20260503014553 | 12 | 0 | 0.0 | 0.0 | 0.10 | 0.10 | 0.10 | 70 | 1015.7 |
| 20260503014038 | 12 | 0 | 0.0 | 0.0 | 0.10 | 0.10 | 0.10 | 70 | 1015.6 |
| 20260503013538 | 12 | 0 | 0.0 | 0.0 | 0.10 | 0.10 | 0.10 | 72 | 1015.8 |
| 20260503013045 | 12 | 0 | 0.0 | 0.0 | 0.10 | 0.10 | 0.10 | 71 | 1015.9 |
| 20260503012538 | 12 | 0 | 0.0 | 0.0 | 0.10 | 0.10 | 0.10 | 71 | 1016.3 |
| 20260503012040 | 12 | 0 | 0.0 | 0.0 | 0.10 | 0.10 | 0.10 | 69 | 1016.5 |
| 20260503011554 | 12 | 0 | 0.0 | 0.0 | 0.10 | 0.10 | 0.10 | 67 | 1016.8 |
| 20260503011119 | 12 | 0 | 0.0 | 0.0 | 0.10 | 0.10 | 0.10 | 61 | 1016.6 |
| 20260503010538 | 13 | 0 | 0.0 | 0.0 | 0.08 | 0.08 | 0.08 | 61 | 1016.7 |
| 20260503010048 | 13 | 0 | 0.0 | 0.0 | 0.05 | 0.05 | 0.05 | 58 | 1017.0 |
| 20260503005538 | 15 | 0 | 0.0 | 0.0 | 0.00 | 0.00 | 0.00 | 55 | 1017.1 |
| 20260503005038 | 16 | 0 | 0.0 | 0.0 | 0.00 | 0.00 | 0.00 | 45 | 1016.6 |
| 20260503004551 | 16 | 0 | 0.0 | 0.0 | 0.00 | 0.00 | 0.00 | 43 | 1016.1 |
| 20260503004039 | 16 | 0 | 0.0 | 0.0 | 0.00 | 0.00 | 0.00 | 41 | 1015.9 |
| 20260503003538 | 16 | 0 | 0.0 | 0.0 | 0.00 | 0.00 | 0.00 | 42 | 1015.6 |
| 20260503003051 | 16 | 0 | 0.0 | 0.0 | 0.00 | 0.00 | 0.00 | 42 | 1015.5 |
| 20260503002538 | 16 | 0 | 0.0 | 0.0 | 0.00 | 0.00 | 0.00 | 41 | 1015.3 |
| 20260503002038 | 16 | 0 | 0.0 | 0.0 | 0.00 | 0.00 | 0.00 | 40 | 1015.0 |
| 20260503001548 | 16 | 0 | 0.0 | 0.0 | 0.00 | 0.00 | 0.00 | 41 | 1015.1 |
| 20260503001039 | 16 | 0 | 0.0 | 0.0 | 0.00 | 0.00 | 0.00 | 40 | 1015.2 |
| 20260503000538 | 16 | 0 | 0.0 | 0.0 | 0.00 | 0.00 | 0.00 | 39 | 1015.1 |
| 20260503000051 | 16 | 0 | 0.0 | 0.0 | 0.00 | 0.00 | 0.00 | 41 | 1015.0 |
| 20260502235538 | 16 | 0 | 0.0 | 0.0 | 0.00 | 0.00 | 0.00 | 39 | 1014.9 |
| 20260502235038 | 16 | 0 | 0.0 | 0.0 | 0.00 | 0.00 | 0.00 | 40 | 1014.6 |
| 20260502234558 | 17 | 0 | 0.0 | 0.0 | 0.00 | 0.00 | 0.00 | 38 | 1014.4 |
| 20260502234039 | 17 | 0 | 0.0 | 0.0 | 0.00 | 0.00 | 0.00 | 38 | 1014.4 |
| 20260502233539 | 17 | 0 | 0.0 | 0.0 | 0.00 | 0.00 | 0.00 | 37 | 1014.6 |
| 20260502233050 | 17 | 0 | 0.0 | 0.0 | 0.00 | 0.00 | 0.00 | 38 | 1014.5 |
| 20260502232538 | 17 | 0 | 0.0 | 0.0 | 0.00 | 0.00 | 0.00 | 37 | 1014.5 |
| 20260502232038 | 17 | 0 | 0.0 | 0.0 | 0.00 | 0.00 | 0.00 | 35 | 1014.6 |
| 20260502231604 | 18 | 0 | 0.0 | 0.0 | 0.00 | 0.00 | 0.00 | 36 | 1014.6 |
| 20260502231038 | 18 | 0 | 0.0 | 0.0 | 0.00 | 0.00 | 0.00 | 35 | 1014.8 |
| 20260502230538 | 18 | 0 | 0.0 | 0.0 | 0.00 | 0.00 | 0.00 | 36 | 1014.8 |
| 20260502230051 | 18 | 0 | 0.0 | 0.0 | 0.00 | 0.00 | 0.00 | 35 | 1014.8 |
| 20260502225537 | 18 | 0 | 0.0 | 0.0 | 0.00 | 0.00 | 0.00 | 36 | 1014.8 |
| 20260502225037 | 18 | 0 | 0.0 | 0.0 | 0.00 | 0.00 | 0.00 | 36 | 1014.9 |
| 20260502224550 | 18 | 0 | 0.0 | 0.0 | 0.00 | 0.00 | 0.00 | 35 | 1015.0 |
| 20260502224039 | 18 | 0 | 0.0 | 0.0 | 0.00 | 0.00 | 0.00 | 33 | 1014.9 |
| 20260502223538 | 19 | 0 | 0.0 | 0.0 | 0.00 | 0.00 | 0.00 | 32 | 1015.1 |
| 20260502223051 | 19 | 0 | 0.0 | 0.0 | 0.00 | 0.00 | 0.00 | 32 | 1015.0 |
| 20260502222537 | 19 | 0 | 0.0 | 0.0 | 0.00 | 0.00 | 0.00 | 29 | 1015.1 |
| 20260502222038 | 20 | 0 | 0.0 | 0.0 | 0.00 | 0.00 | 0.00 | 29 | 1015.0 |
| 20260502221550 | 20 | 0 | 0.0 | 0.0 | 0.00 | 0.00 | 0.00 | 25 | 1015.0 |
| 20260502221041 | 20 | 0 | 0.0 | 0.0 | 0.00 | 0.00 | 0.00 | 25 | 1015.1 |
| 20260502220539 | 20 | 0 | 0.0 | 0.0 | 0.00 | 0.00 | 0.00 | 26 | 1015.1 |
| 20260502220053 | 20 | 0 | 0.0 | 0.0 | 0.00 | 0.00 | 0.00 | 25 | 1015.3 |
| 20260502215538 | 20 | 0 | 0.0 | 0.0 | 0.00 | 0.00 | 0.00 | 26 | 1015.4 |
| 20260502215038 | 20 | 0 | 0.0 | 0.0 | 0.00 | 0.00 | 0.00 | 26 | 1015.4 |
| 20260502214548 | 20 | 0 | 0.0 | 0.0 | 0.00 | 0.00 | 0.00 | 26 | 1015.4 |
| 20260502214038 | 20 | 0 | 0.0 | 0.0 | 0.00 | 0.00 | 0.00 | 26 | 1015.4 |
| 20260502213538 | 20 | 0 | 0.0 | 0.0 | 0.00 | 0.00 | 0.00 | 26 | 1015.4 |
| 20260502213053 | 20 | 0 | 0.0 | 0.0 | 0.00 | 0.00 | 0.00 | 26 | 1015.5 |
| 20260502212538 | 20 | 0 | 0.0 | 0.0 | 0.00 | 0.00 | 0.00 | 26 | 1015.6 |
| 20260502212038 | 20 | 0 | 0.0 | 0.0 | 0.00 | 0.00 | 0.00 | 27 | 1015.6 |
| 20260502211546 | 20 | 0 | 0.0 | 0.0 | 0.00 | 0.00 | 0.00 | 27 | 1015.8 |
| 20260502211038 | 20 | 0 | 0.0 | 0.0 | 0.00 | 0.00 | 0.00 | 26 | 1015.8 |
| 20260502210537 | 20 | 0 | 0.0 | 0.0 | 0.00 | 0.00 | 0.00 | 26 | 1015.8 |
| 20260502210055 | 20 | 0 | 0.0 | 0.0 | 0.00 | 0.00 | 0.00 | 26 | 1015.7 |
| 20260502205539 | 20 | 0 | 0.0 | 0.0 | 0.00 | 0.00 | 0.00 | 26 | 1015.8 |
| 20260502205038 | 20 | 0 | 0.0 | 0.0 | 0.00 | 0.00 | 0.00 | 26 | 1015.8 |
| 20260502204602 | 20 | 0 | 0.0 | 0.0 | 0.00 | 0.00 | 0.00 | 26 | 1015.9 |
| 20260502204037 | 20 | 0 | 0.0 | 0.0 | 0.00 | 0.00 | 0.00 | 25 | 1015.8 |
| 20260502203542 | 20 | 0 | 0.0 | 0.0 | 0.00 | 0.00 | 0.00 | 25 | 1015.8 |
| 20260502203052 | 20 | 0 | 0.0 | 0.0 | 0.00 | 0.00 | 0.00 | 25 | 1015.8 |
| 20260502202540 | 20 | 0 | 0.0 | 0.0 | 0.00 | 0.00 | 0.00 | 25 | 1015.9 |
| 20260502202038 | 20 | 0 | 0.0 | 0.0 | 0.00 | 0.00 | 0.00 | 25 | 1015.8 |
| 20260502201550 | 20 | 0 | 0.0 | 0.0 | 0.00 | 0.00 | 0.00 | 25 | 1015.8 |
| 20260502201038 | 21 | 0 | 0.0 | 0.0 | 0.00 | 0.00 | 0.00 | 25 | 1015.9 |
| 20260502200538 | 20 | 0 | 0.0 | 0.0 | 0.00 | 0.00 | 0.00 | 25 | 1015.9 |
| 20260502200049 | 20 | 0 | 0.0 | 0.0 | 0.00 | 0.00 | 0.00 | 25 | 1016.0 |
| 20260502195537 | 20 | 0 | 0.0 | 0.0 | 0.00 | 0.00 | 0.00 | 25 | 1015.9 |
| 20260502195037 | 21 | 0 | 0.0 | 0.0 | 0.00 | 0.00 | 0.00 | 25 | 1015.9 |
| 20260502194551 | 21 | 0 | 0.0 | 0.0 | 0.00 | 0.00 | 0.00 | 25 | 1016.0 |
| 20260502194037 | 21 | 0 | 0.0 | 0.0 | 0.00 | 0.00 | 0.00 | 25 | 1016.0 |
| 20260502193537 | 21 | 0 | 0.0 | 0.0 | 0.00 | 0.00 | 0.00 | 25 | 1015.9 |
| 20260502193055 | 21 | 0 | 0.0 | 0.0 | 0.00 | 0.00 | 0.00 | 25 | 1015.9 |
| 20260502192538 | 21 | 0 | 0.0 | 0.0 | 0.00 | 0.00 | 0.00 | 25 | 1016.1 |
| 20260502192038 | 21 | 0 | 0.0 | 0.0 | 0.00 | 0.00 | 0.00 | 25 | 1016.0 |
| 20260502191554 | 21 | 0 | 0.0 | 0.0 | 0.00 | 0.00 | 0.00 | 25 | 1016.0 |
| 20260502191038 | 21 | 0 | 0.0 | 0.0 | 0.00 | 0.00 | 0.00 | 24 | 1016.1 |
| 20260502190537 | 21 | 0 | 0.0 | 0.0 | 0.00 | 0.00 | 0.00 | 25 | 1016.1 |
| 20260502190051 | 20 | 0 | 0.0 | 0.0 | 0.00 | 0.00 | 0.00 | 25 | 1016.3 |
| 20260502185537 | 20 | 0 | 0.0 | 0.0 | 0.00 | 0.00 | 0.00 | 25 | 1016.3 |
| 20260502185037 | 20 | 0 | 0.0 | 0.0 | 0.00 | 0.00 | 0.00 | 25 | 1016.3 |
| 20260502184555 | 20 | 0 | 0.0 | 0.0 | 0.00 | 0.00 | 0.00 | 25 | 1016.4 |
| 20260502184037 | 20 | 0 | 0.0 | 0.0 | 0.00 | 0.00 | 0.00 | 25 | 1016.5 |
| 20260502183538 | 21 | 0 | 0.0 | 0.0 | 0.00 | 0.00 | 0.00 | 25 | 1016.5 |
| 20260502183048 | 21 | 0 | 0.0 | 0.0 | 0.00 | 0.00 | 0.00 | 24 | 1016.4 |
| 20260502182538 | 21 | 0 | 0.0 | 0.0 | 0.00 | 0.00 | 0.00 | 25 | 1016.5 |
| 20260502182043 | 20 | 0 | 0.0 | 0.0 | 0.00 | 0.00 | 0.00 | 26 | 1016.7 |
| 20260502181547 | 20 | 0 | 0.0 | 0.0 | 0.00 | 0.00 | 0.00 | 26 | 1016.8 |
| 20260502181037 | 20 | 0 | 0.0 | 0.0 | 0.00 | 0.00 | 0.00 | 25 | 1016.7 |
| 20260502180537 | 20 | 0 | 0.0 | 0.0 | 0.00 | 0.00 | 0.00 | 25 | 1016.9 |
| 20260502180104 | 20 | 0 | 0.0 | 0.0 | 0.00 | 0.00 | 0.00 | 25 | 1017.0 |
| 20260502164037 | 18 | 0 | 0.0 | 0.0 | 0.00 | 0.00 | 0.00 | 31 | 1017.0 |
| 20260502163537 | 17 | 0 | 0.0 | 0.0 | 0.00 | 0.00 | 0.00 | 32 | 1016.8 |
| 20260502163054 | 17 | 0 | 0.0 | 0.0 | 0.00 | 0.00 | 0.00 | 32 | 1017.0 |
| 20260502162540 | 17 | 0 | 0.0 | 0.0 | 0.00 | 0.00 | 0.00 | 33 | 1017.0 |
| 20260502162037 | 16 | 0 | 0.0 | 0.0 | 0.00 | 0.00 | 0.00 | 33 | 1016.7 |
| 20260502161553 | 16 | 0 | 0.0 | 0.0 | 0.00 | 0.00 | 0.00 | 34 | 1016.8 |
| 20260502161037 | 16 | 0 | 0.0 | 0.0 | 0.00 | 0.00 | 0.00 | 35 | 1016.8 |
| 20260502160541 | 15 | 0 | 0.0 | 0.0 | 0.00 | 0.00 | 0.00 | 36 | 1017.0 |
| 20260502152038 | 11 | 0 | 0.0 | 0.0 | 0.00 | 0.00 | 0.00 | 46 | 1016.8 |
| 20260502151600 | 11 | 0 | 0.0 | 0.0 | 0.00 | 0.00 | 0.00 | 47 | 1016.7 |
| 20260502151037 | 10 | 0 | 0.0 | 0.0 | 0.00 | 0.00 | 0.00 | 48 | 1016.7 |
| 20260502150537 | 10 | 0 | 0.0 | 0.0 | 0.00 | 0.00 | 0.00 | 50 | 1016.6 |
| 20260502130540 | 5 | 0 | 0.0 | 0.0 | 0.00 | 0.00 | 0.00 | 54 | 1016.0 |
| 20260502123541 | 5 | 0 | 0.0 | 0.0 | 0.00 | 0.00 | 0.00 | 55 | 1016.0 |
| 20260502123049 | 5 | 0 | 0.0 | 0.0 | 0.00 | 0.00 | 0.00 | 54 | 1016.0 |
| 20260502122537 | 5 | 0 | 0.0 | 0.0 | 0.00 | 0.00 | 0.00 | 52 | 1016.0 |
| 20260502122039 | 6 | 0 | 0.0 | 0.0 | 0.00 | 0.00 | 0.00 | 51 | 1016.0 |
| 20260502121552 | 6 | 0 | 0.0 | 0.0 | 0.00 | 0.00 | 0.00 | 50 | 1015.9 |
| 20260502121039 | 6 | 0 | 0.0 | 0.0 | 0.00 | 0.00 | 0.00 | 49 | 1016.1 |
| 20260502120537 | 6 | 0 | 0.0 | 0.0 | 0.00 | 0.00 | 0.00 | 49 | 1015.9 |
| 20260502115540 | 6 | 0 | 0.0 | 0.0 | 0.00 | 0.00 | 0.00 | 48 | 1015.9 |
| 20260502115037 | 6 | 0 | 0.0 | 0.0 | 0.00 | 0.00 | 0.00 | 48 | 1016.1 |
| 20260502114550 | 6 | 0 | 0.0 | 0.0 | 0.00 | 0.00 | 0.00 | 47 | 1016.1 |
| 20260502114037 | 6 | 0 | 0.0 | 0.0 | 0.00 | 0.00 | 0.00 | 48 | 1016.1 |
| 20260502113537 | 6 | 0 | 0.0 | 0.0 | 0.00 | 0.00 | 0.00 | 47 | 1016.1 |
| 20260502113047 | 6 | 0 | 0.0 | 0.0 | 0.00 | 0.00 | 0.00 | 46 | 1016.0 |
| 20260502112540 | 6 | 0 | 0.0 | 0.0 | 0.00 | 0.00 | 0.00 | 46 | 1016.1 |
| 20260502112037 | 6 | 0 | 0.0 | 0.0 | 0.00 | 0.00 | 0.00 | 45 | 1015.9 |
| 20260502111600 | 6 | 0 | 0.0 | 0.0 | 0.00 | 0.00 | 0.00 | 46 | 1015.9 |
| 20260502111036 | 6 | 0 | 0.0 | 0.0 | 0.00 | 0.00 | 0.00 | 46 | 1015.9 |
| 20260502110539 | 6 | 0 | 0.0 | 0.0 | 0.00 | 0.00 | 0.00 | 45 | 1015.8 |
| 20260502110050 | 6 | 0 | 0.0 | 0.0 | 0.00 | 0.00 | 0.00 | 46 | 1015.8 |
| 20260502105538 | 7 | 0 | 0.0 | 0.0 | 0.00 | 0.00 | 0.00 | 45 | 1015.8 |
| 20260502105037 | 7 | 0 | 0.0 | 0.0 | 0.00 | 0.00 | 0.00 | 45 | 1015.7 |
| 20260502104547 | 7 | 0 | 0.0 | 0.0 | 0.00 | 0.00 | 0.00 | 44 | 1015.8 |
| 20260502104037 | 7 | 0 | 0.0 | 0.0 | 0.00 | 0.00 | 0.00 | 44 | 1015.7 |
| 20260502103537 | 7 | 0 | 0.0 | 0.0 | 0.00 | 0.00 | 0.00 | 44 | 1015.8 |
| 20260502103106 | 7 | 0 | 0.0 | 0.0 | 0.00 | 0.00 | 0.00 | 43 | 1015.8 |
| 20260502102537 | 7 | 0 | 0.0 | 0.0 | 0.00 | 0.00 | 0.00 | 42 | 1015.8 |
| 20260502102037 | 7 | 0 | 0.0 | 0.0 | 0.00 | 0.00 | 0.00 | 42 | 1015.8 |
| 20260502101604 | 7 | 0 | 0.0 | 0.0 | 0.00 | 0.00 | 0.00 | 42 | 1015.8 |
| 20260502101038 | 7 | 0 | 0.0 | 0.0 | 0.00 | 0.00 | 0.00 | 40 | 1015.8 |
| 20260502100536 | 7 | 0 | 0.0 | 0.0 | 0.00 | 0.00 | 0.00 | 40 | 1015.8 |
| 20260502091037 | 8 | 0 | 0.0 | 0.0 | 0.00 | 0.00 | 0.00 | 40 | 1016.3 |
| 20260502090540 | 8 | 0 | 0.0 | 0.0 | 0.00 | 0.00 | 0.00 | 38 | 1016.4 |
| 20260502071038 | 11 | 0 | 0.0 | 0.0 | 0.00 | 0.00 | 0.00 | 28 | 1017.2 |
| 20260502070538 | 11 | 0 | 0.0 | 0.0 | 0.00 | 0.00 | 0.00 | 28 | 1017.1 |